CZ-3B DEB, 42464

Orbit data source: Space-Track

CZ-3B DEB, 42464 is space debris in HEO originally from a launch on Sat, 04 Sep 2010 UTC launched from the Xichang Space Center, China (XSC). Debris objects in space refer to the collection of defunct objects orbiting the Earth. Examples of debris include non-operational satellites, rocket bodies, and fragments generated from explosions, collisions, or faulty payload assembly.

Loading next visibility...
Identifier
42464, 2010-042AF
Orbit
HEO
Country
Flag of CNCN / PRC
Related business
Manufacturer
CALT
Mission
Spacecraft
Bus & Motor
Unknown
Mass
Unknown
Launch date (UTC)
2010-09-04 (15 years ago)
Launch vehicle
Unknown
Launch site
Xichang Space Center, China (XSC)
Object type
Payload
Rocket body
Debris
Shape & HBR
Unknown shape, 0.3 m
Radar Cross Section
Medium (>0.1 m² and <1 m²)

Expand to show TLE details & history
Last TLE update: 21 hours ago

TLE from 21 hours ago
0 CZ-3B DEB
1 42464U 10042AF  26037.07343039 -.00000224  00000-0  00000+0 0  9992
2 42464  25.0654 306.0752 7393969 345.8824   1.5774  1.82498239 80139
Epoch: 2026-02-06T01:45Z
TLE epoch observation values (Epoch: 2026-02-06T01:45:44.385Z)
Latitude
-0.00089°
Longitude
143.44122°
Altitude
1,064.772 km
Speed
9.644 km/s
True Right ascension
20h 24m 22s
True Declination
0° 00' 03"
Sunlit
Object was in daylight at epoch
Visualization orbit readout
Latitude
Unknown
Longitude
Unknown
Altitude
Unknown
Speed
Unknown
Apparent Right ascension
Unknown
Apparent Declination
Unknown
Sunlit
N/A
Visualization observer readout
Local Sidereal Time
00:57:29
Azimuth
Unknown
Elevation
Unknown
Doppler factor
Unknown
Orbital elements
Apogee altitude
42,827.961 km
Perigee altitude
994.109 km
Semi-major axis
28,289.172 km
Eccentricity
0.7394
Inclination
25.0654°
RAAN
306.0752°
Arg. of periapsis
345.8824°
True anomaly
15.47601°
Mean anomaly
1.5774°
Eccentric anomaly
6.02145°
Mean motion
0.45616 °/min
Orbital period
789.2 mins
BSTAR
0
Loading maneuver chart data...
Computing Atmospheric mass density...
Loading historical data...
Loading historical data...
Loading historical data...
Loading historical data...
Loading historical data...
Loading historical data...
Loading historical data...

Documentation

Showing up to 5 results
|